Overview Statistics Trail Chart Weather Telemetry Raw packets
 

This is the latest recevied weather packets stored in our database for station/object WC4PEM-9. If no packets are shown the sender has not sent any weather packets the latest 10 day(s).

<< 153 154 155 156 157 158 159 >>
Time Temp. Humidity Pressure Rain* Wind** Luminosity Snow
1787777837 34.44° C 55% 1013.5 hPa 0 mm - - -
1787777711 34.44° C 54% 1013.7 hPa 0 mm - - -
1787777537 34.44° C 54% 1013.7 hPa 0 mm - - -
1787777237 35° C 54% 1013.8 hPa 0 mm - - -
1787776937 35° C 55% 1013.7 hPa 0 mm - - -
1787776637 34.44° C 54% 1013.8 hPa 0 mm - - -
1787776536 34.44° C 54% 1014 hPa 0 mm - - -
1787776337 34.44° C 54% 1014 hPa 0 mm - - -
1787776037 34.44° C 55% 1013.9 hPa 0 mm - - -
1787775911 34.44° C 55% 1013.9 hPa 0 mm - - -
1787775737 34.44° C 55% 1013.9 hPa 0 mm - - -
1787775437 33.89° C 57% 1013.9 hPa 0 mm - - -
1787775210 33.89° C 60% 1013.9 hPa 0 mm - - -
1787775137 33.89° C 60% 1013.9 hPa 0 mm - - -
1787774916 33.89° C 58% 1014 hPa 0 mm - - -
1787774837 33.89° C 58% 1014 hPa 0 mm - - -
1787774537 33.33° C 58% 1013.9 hPa 0 mm - - -
1787774237 33.33° C 57% 1014.1 hPa 0 mm - - -
1787773989 33.33° C 57% 1014 hPa 0 mm - - -
1787773937 33.33° C 57% 1014 hPa 0 mm - - -
1787773637 33.33° C 59% 1014.1 hPa 0 mm - - -
1787773395 33.33° C 57% 1014.2 hPa 0 mm - - -
1787773338 33.33° C 57% 1014.2 hPa 0 mm - - -
1787773099 33.33° C 57% 1014.4 hPa 0 mm - - -
1787773038 33.33° C 57% 1014.4 hPa 0 mm - - -

* Rain latest hour (hover to see other rain measurements)
** Current wind speed in m/s (hover to see current wind gust speed)